Storm Lake, IA

9:59 PM CDT on September 24, 2016 (GMT -0500)
Storm Lake Municipal

Weather History for KSLB - August, 2014

Change the Weather History Date:

Tuesday, August 12, 2014

  Actual Average Record
Temperature  
Mean Temperature 62 °F -  
Max Temperature 73 °F 77 °F 84 °F (1999)
Min Temperature 51 °F 59 °F 46 °F (2004)
Degree Days  
Heating Degree Days 3    
Growing Degree Days 12 (Base 50)    
Moisture  
Dew Point 56 °F    
Average Humidity 78    
Maximum Humidity 100    
Minimum Humidity 53    
Precipitation  
Precipitation 0.00 in - - ()
Sea Level Pressure  
Sea Level Pressure 30.12 in    
Wind  
Wind Speed 9 mph (NW)    
Max Wind Speed 14 mph    
Max Gust Speed 20 mph    
Visibility 10 miles    
Events      
Averages and records for this station are not official NWS values.
T = Trace of Precipitation, MM = Missing Value Source: NWS Daily Summary

Daily Weather History Graph

Daily Weather History Graph

Search for Another Location

Airport or City:

Trip Planner

Search our weather history database for the weather conditions in past years. The results will help you decide how hot, cold, wet, or windy it might be!

Date:

Astronomy

Aug. 12, 2014 Rise Set
Actual Time 6:24 AM CDT 8:26 PM CDT
Civil Twilight 5:53 AM CDT 8:57 PM CDT
Nautical Twilight 5:16 AM CDT 9:34 PM CDT
Astronomical Twilight 4:34 AM CDT 10:15 PM CDT
Moon 9:29 PM CDT (8/12) 8:47 AM CDT (8/12)
Length of Visible Light 15h 03m
Length of Day
14h 02m
Waning Gibbous, 94% of the Moon is Illuminated
Aug 12
Waning Gibbous
Aug 17
Last Quarter
Aug 25
New
Sep 2
First Quarter
Sep 8
Full

Hourly Weather History & Observations

Time (CDT) Temp. Dew Point Humidity Pressure Visibility Wind Dir Wind Speed Gust Speed Precip Events Conditions
3:15 AM 53.6 °F 51.8 °F 94% 30.12 in 10.0 mi WNW 9.2 mph - N/A   Clear
3:35 AM 53.6 °F 53.6 °F 100% 30.12 in 10.0 mi WNW 9.2 mph - N/A   Clear
3:55 AM 53.6 °F 53.6 °F 100% 30.12 in 10.0 mi NW 10.4 mph - N/A   Clear
4:15 AM 53.6 °F 53.6 °F 100% 30.12 in 10.0 mi NW 9.2 mph - N/A   Clear
4:40 AM 53.6 °F 53.6 °F 100% 30.12 in 10.0 mi NW 9.2 mph - N/A   Clear
4:55 AM 53.6 °F 51.8 °F 94% 30.12 in 10.0 mi NW 10.4 mph - N/A   Clear
5:15 AM 53.6 °F 51.8 °F 94% 30.12 in 10.0 mi NW 9.2 mph - N/A   Clear
5:35 AM 51.8 °F 51.8 °F 100% 30.12 in 10.0 mi NW 9.2 mph - N/A   Clear
5:55 AM 51.8 °F 51.8 °F 100% 30.13 in 10.0 mi NW 9.2 mph - N/A   Clear
6:15 AM 51.8 °F 51.8 °F 100% 30.13 in 10.0 mi NW 9.2 mph - N/A   Clear
6:35 AM 51.8 °F 51.8 °F 100% 30.13 in 10.0 mi NW 8.1 mph - N/A   Clear
6:55 AM 51.8 °F 51.8 °F 100% 30.13 in 10.0 mi NW 8.1 mph - N/A   Clear
7:15 AM 53.6 °F 51.8 °F 94% 30.14 in 10.0 mi NW 8.1 mph - N/A   Clear
7:35 AM 53.6 °F 53.6 °F 100% 30.14 in 10.0 mi NW 6.9 mph - N/A   Clear
7:55 AM 55.4 °F 53.6 °F 94% 30.14 in 9.0 mi NW 8.1 mph - N/A   Clear
8:15 AM 57.2 °F 55.4 °F 94% 30.15 in 10.0 mi NNW 8.1 mph - N/A   Clear
8:35 AM 59.0 °F 55.4 °F 88% 30.15 in 10.0 mi NNW 6.9 mph - N/A   Clear
8:55 AM 60.8 °F 55.4 °F 82% 30.16 in 10.0 mi NNW 8.1 mph - N/A   Clear
9:15 AM 62.6 °F 57.2 °F 82% 30.16 in 10.0 mi NNW 8.1 mph - N/A   Clear
9:35 AM 64.4 °F 57.2 °F 77% 30.15 in 10.0 mi Variable 5.8 mph - N/A   Clear
9:55 AM 66.2 °F 59.0 °F 78% 30.15 in 10.0 mi NNW 9.2 mph - N/A   Clear
10:15 AM 66.2 °F 59.0 °F 78% 30.16 in 10.0 mi North 9.2 mph - N/A   Clear
10:35 AM 68.0 °F 59.0 °F 73% 30.16 in 10.0 mi NNW 9.2 mph - N/A   Clear
12:35 PM 69.8 °F 55.4 °F 60% 30.15 in 10.0 mi NNW 9.2 mph 19.6 mph N/A   Partly Cloudy
12:55 PM 71.6 °F 57.2 °F 60% 30.15 in 10.0 mi NNW 10.4 mph 16.1 mph N/A   Partly Cloudy
1:15 PM 71.6 °F 57.2 °F 60% 30.15 in 10.0 mi North 12.7 mph - N/A   Partly Cloudy
1:35 PM 71.6 °F 55.4 °F 57% 30.14 in 10.0 mi NNW 12.7 mph 18.4 mph N/A   Clear
1:55 PM 71.6 °F 57.2 °F 60% 30.13 in 10.0 mi North 13.8 mph - N/A   Clear
2:15 PM 71.6 °F 55.4 °F 57% 30.13 in 10.0 mi NNW 10.4 mph 16.1 mph N/A   Clear
2:35 PM 71.6 °F 57.2 °F 60% 30.13 in 10.0 mi NNW 8.1 mph 15.0 mph N/A   Partly Cloudy
3:15 PM 73.4 °F 55.4 °F 53% 30.12 in 10.0 mi North 10.4 mph - N/A   Clear
3:35 PM 73.4 °F 55.4 °F 53% 30.12 in 10.0 mi NNW 10.4 mph 16.1 mph N/A   Partly Cloudy
3:55 PM 73.4 °F 55.4 °F 53% 30.11 in 10.0 mi NNW 9.2 mph 17.3 mph N/A   Clear
4:15 PM 73.4 °F 55.4 °F 53% 30.11 in 10.0 mi North 10.4 mph 16.1 mph N/A   Clear
4:35 PM 73.4 °F 55.4 °F 53% 30.11 in 10.0 mi North 9.2 mph 16.1 mph N/A   Clear
4:55 PM 73.4 °F 55.4 °F 53% 30.11 in 10.0 mi North 9.2 mph - N/A   Clear
5:15 PM 73.4 °F 55.4 °F 53% 30.11 in 10.0 mi North 9.2 mph - N/A   Clear
5:35 PM 73.4 °F 55.4 °F 53% 30.11 in 10.0 mi NNW 9.2 mph - N/A   Clear
5:55 PM 73.4 °F 55.4 °F 53% 30.10 in 10.0 mi NNW 6.9 mph - N/A   Clear
6:55 PM 71.6 °F 55.4 °F 57% 30.09 in 10.0 mi NW 4.6 mph - N/A   Clear
7:15 PM 71.6 °F 57.2 °F 60% 30.09 in 10.0 mi NNW 4.6 mph - N/A   Clear
7:35 PM 69.8 °F 59.0 °F 68% 30.09 in 10.0 mi NW 4.6 mph - N/A   Clear
7:55 PM 68.0 °F 59.0 °F 73% 30.09 in 10.0 mi NW 5.8 mph - N/A   Clear
8:15 PM 66.2 °F 59.0 °F 78% 30.09 in 10.0 mi NW 5.8 mph - N/A   Clear
8:35 PM 64.4 °F 59.0 °F 83% 30.09 in 10.0 mi NW 4.6 mph - N/A   Clear
8:55 PM 64.4 °F 59.0 °F 83% 30.09 in 10.0 mi NW 5.8 mph - N/A   Clear
9:15 PM 62.6 °F 57.2 °F 82% 30.10 in 10.0 mi NW 6.9 mph - N/A   Clear
9:35 PM 62.6 °F 57.2 °F 82% 30.10 in 10.0 mi NW 6.9 mph - N/A   Clear
9:55 PM 60.8 °F 57.2 °F 88% 30.10 in 10.0 mi NW 5.8 mph - N/A   Clear
10:15 PM 62.6 °F 57.2 °F 82% 30.11 in 10.0 mi NW 6.9 mph - N/A   Clear
10:35 PM 62.6 °F 57.2 °F 82% 30.11 in 10.0 mi NW 6.9 mph - N/A   Clear
10:55 PM 60.8 °F 55.4 °F 82% 30.11 in 10.0 mi NW 6.9 mph - N/A   Clear
11:15 PM 60.8 °F 55.4 °F 82% 30.11 in 10.0 mi NW 5.8 mph - N/A   Clear
11:35 PM 59.0 °F 57.2 °F 94% 30.12 in 10.0 mi NW 6.9 mph - N/A   Clear
11:55 PM 59.0 °F 55.4 °F 88% 30.12 in 10.0 mi West 6.9 mph - N/A   Clear